Theta_e
324 323 321 321 321 320 320 321 322 324 323 322 321 324 324 324 324 318 311 318 322 330 326 318 315 313 312 308 306 307 299 295 297 298 302 302 301 305 308 309 314 316 314 318 321
323 323 323 322 322 322 321 322 322 322 323 322 321 321 323 324 315 311 321 327 330 330 317 315 310 310 310 306 304 302 298 298 301 302 303 301 301 303 305 307 309 313 319 320 322
323 323 323 322 322 322 322 322 321 322 322 322 322 321 322 320 305 306 324 326 327 328 317 314 311 309 308 304 303 301 298 302 304 305 303 301 301 304 303 303 307 308 314 318 319
322 322 322 322 321 322 322 322 321 322 322 323 322 321 322 313 284 310 330 327 328 320 315 311 310 306 304 303 304 300 302 302 305 308 305 303 301 301 303 305 308 308 316 318 318
321 321 321 321 321 321 322 321 321 321 321 322 322 321 314 302 302 315 327 325 319 315 312 309 307 306 304 304 305 301 303 307 308 308 308 307 305 303 301 305 305 312 317 318 319
320 320 320 320 321 321 321 321 321 320 321 322 322 321 305 293 309 317 319 318 317 314 310 310 309 309 305 304 304 305 306 306 307 308 309 307 307 305 309 306 305 311 315 317 318
320 320 320 320 321 320 320 320 321 321 322 322 322 313 303 299 314 317 319 316 315 315 310 313 313 309 307 303 306 305 302 303 304 306 306 308 303 302 312 303 304 309 312 316 318
318 319 319 319 320 320 320 320 319 320 321 322 320 306 296 307 315 316 318 314 318 318 318 316 316 309 308 307 303 300 302 296 300 304 306 306 298 305 307 303 303 302 308 313 317
317 318 319 319 319 319 319 319 318 319 319 318 309 305 298 314 307 313 315 310 316 318 317 317 315 307 304 298 294 298 291 294 296 303 302 300 297 305 307 299 300 302 301 307 314
316 317 318 319 318 318 319 318 317 315 312 312 309 300 302 298 305 311 312 315 310 311 309 309 305 298 298 294 284 287 291 292 292 297 297 296 294 298 300 299 299 299 300 300 306
315 316 317 318 319 319 316 309 300 298 303 295 296 295 297 304 309 307 312 311 308 305 297 303 297 292 295 296 294 292 290 289 292 296 295 294 295 297 301 302 300 302 301 301 300
313 315 316 317 318 318 312 302 300 298 291 298 298 300 301 305 298 303 311 301 300 293 298 295 291 294 296 298 296 294 292 290 292 295 295 293 292 296 298 300 302 302 303 304 304
313 313 315 316 317 315 307 304 304 299 289 291 298 297 300 301 296 297 305 299 294 291 293 287 288 295 294 293 292 291 291 291 290 293 294 291 289 292 295 300 301 303 304 305 305
311 312 313 315 309 311 305 308 305 300 283 285 291 294 299 299 293 301 306 298 294 291 292 291 295 291 291 291 291 287 292 292 291 289 283 290 280 287 289 292 297 300 302 304 305
309 310 311 314 304 305 307 305 303 297 272 285 289 299 298 294 293 298 305 299 290 290 292 286 288 288 288 291 294 290 292 290 289 287 286 285 282 283 288 287 290 295 300 303 305
309 310 309 308 307 308 309 304 297 279 271 280 289 290 291 293 291 299 298 299 296 290 289 286 291 291 290 292 294 293 290 290 289 287 280 283 283 283 285 288 288 292 297 301 303
308 309 306 308 302 311 306 298 280 274 282 281 285 289 288 288 289 293 292 290 286 283 282 285 287 291 294 288 292 292 286 273 278 277 276 284 282 285 289 290 292 292 295 298 300
307 308 305 302 309 309 302 289 276 279 277 284 285 287 285 287 288 291 289 286 290 283 281 281 279 288 293 290 286 288 288 277 269 273 276 283 280 285 291 295 296 298 299 300 300
306 302 300 301 305 307 294 281 280 281 282 283 285 282 283 287 286 287 288 286 290 289 282 281 281 287 290 292 292 287 284 289 279 276 276 281 284 290 293 293 294 295 297 297 299
298 297 296 302 304 296 288 284 283 286 286 285 278 283 279 283 283 284 284 289 288 292 286 282 278 284 288 291 292 290 291 283 284 274 271 278 280 281 287 290 293 292 293 295 297
295 289 295 303 301 287 282 284 284 287 289 283 280 280 280 282 283 283 282 284 291 289 292 285 281 282 287 286 284 286 285 285 285 282 275 273 278 286 289 291 290 291 293 294 296
292 282 297 301 285 285 283 285 288 286 287 286 285 283 282 283 282 282 281 284 288 289 286 286 283 275 280 288 289 288 286 286 280 276 280 280 280 292 291 292 293 294 296 298 298
286 285 298 297 280 281 284 284 286 285 286 285 284 285 284 283 279 282 282 286 287 288 285 287 280 268 273 278 283 284 287 288 287 284 279 276 279 291 291 291 293 291 292 295 298
286 281 288 291 288 284 283 283 283 288 287 286 285 287 283 282 283 281 282 286 288 288 293 292 281 279 274 276 280 280 285 287 285 281 280 281 282 287 290 291 293 294 296 297 298
284 283 285 280 282 284 285 285 283 282 287 287 285 285 283 279 282 281 283 285 288 291 290 288 275 281 282 281 283 284 285 285 284 285 281 283 284 288 291 292 293 296 296 296 297
283 284 285 281 285 284 285 283 284 284 285 284 283 285 286 281 283 281 284 285 285 288 288 289 282 281 277 283 284 282 283 285 286 286 285 286 285 292 294 295 294 295 295 295 296
288 291 285 284 284 282 282 283 285 286 285 288 285 285 283 285 288 289 290 290 288 287 286 287 284 278 271 280 279 271 281 282 283 285 286 282 287 291 291 292 293 295 296 296 297
Wind_Speed
16 16 16 15 13 12 11 8 5 6 4 1 2 4 4 3 7 3 4 3 2 4 5 5 5 4 3 3 3 2 3 3 4 7 4 4 2 0 0 5 3 5 3 1 8
18 17 16 16 14 12 12 11 9 6 6 4 2 3 5 3 3 5 7 5 4 4 2 1 2 2 3 1 2 4 3 7 5 4 4 5 4 4 3 2 4 2 1 5 11
19 18 17 16 15 14 12 11 9 7 6 6 4 4 5 2 3 5 7 8 6 1 0 1 2 2 3 1 2 3 5 3 1 2 2 4 1 4 7 3 7 7 6 8 9
21 19 19 17 16 15 14 12 11 8 6 7 7 6 3 3 6 2 8 3 6 5 4 3 2 4 4 6 4 3 5 4 1 3 3 2 4 3 4 5 1 5 5 9 14
21 21 19 18 17 16 15 13 12 10 8 8 9 7 3 2 8 3 6 5 3 4 4 4 4 4 5 4 4 4 3 3 3 3 2 1 4 3 8 10 6 2 7 13 13
22 21 20 19 18 18 16 15 13 10 9 10 10 8 3 5 4 4 3 3 2 2 3 3 4 3 4 3 4 1 2 2 2 3 3 3 4 5 11 4 6 6 9 11 14
22 22 22 21 19 18 18 16 14 10 9 12 12 5 2 10 0 2 2 2 2 1 3 2 1 1 5 3 2 2 3 6 4 6 6 6 8 10 19 7 10 9 8 9 14
20 22 23 22 21 20 18 17 15 12 10 10 10 3 7 2 4 4 1 1 2 1 1 2 2 5 2 3 3 3 2 3 2 6 6 9 13 8 12 7 12 9 8 9 12
16 20 23 24 22 21 19 18 14 12 11 8 4 3 5 5 4 5 5 4 4 2 3 1 2 3 1 4 2 0 3 6 6 4 2 7 0 4 5 7 10 10 10 11 10
15 17 20 22 24 24 21 18 12 7 4 4 2 3 3 7 5 5 4 4 4 5 2 3 4 5 3 4 9 6 6 2 4 4 3 7 11 9 9 4 8 7 9 9 11
18 16 18 23 23 25 19 8 7 4 6 8 7 4 4 3 3 3 4 5 4 4 6 3 5 11 10 7 3 7 4 1 3 5 6 7 14 10 13 14 11 13 12 13 12
17 18 18 21 26 27 18 12 11 7 6 7 1 7 3 4 4 6 4 9 8 10 7 4 18 6 3 8 7 6 7 8 3 3 2 11 27 18 11 18 18 19 17 15 12
16 17 19 20 22 23 21 24 12 7 5 6 6 7 4 5 6 11 10 5 4 7 12 7 2 12 7 5 7 8 9 7 13 7 5 9 26 20 10 18 19 17 18 17 19
13 14 18 18 15 14 17 19 13 6 3 6 14 8 7 6 5 7 11 7 6 12 7 13 10 4 5 9 8 11 3 6 10 7 6 4 15 15 4 12 11 17 19 19 18
19 17 15 23 6 18 8 18 11 6 8 10 11 6 13 12 8 9 6 3 7 7 8 7 9 10 5 12 10 10 6 6 5 4 7 10 10 5 4 8 9 11 15 14 14
21 17 16 12 12 14 20 18 11 4 9 6 7 15 18 11 2 7 6 2 5 5 0 5 1 6 8 6 11 5 4 3 4 3 10 11 11 15 11 14 5 5 12 13 13
22 20 11 7 17 14 17 16 7 9 5 10 10 20 24 17 11 10 18 21 12 12 14 7 8 1 4 7 5 5 7 1 4 6 10 10 10 28 9 9 11 10 12 13 11
22 22 15 11 7 23 15 13 17 9 11 5 11 18 19 16 13 14 16 17 18 4 8 11 6 17 10 7 9 19 13 7 11 8 3 4 13 15 0 8 13 19 20 15 15
23 12 9 13 11 9 17 19 12 15 13 13 19 20 10 13 10 12 16 23 21 16 11 12 10 3 2 6 10 7 15 14 2 0 2 6 11 18 21 22 17 16 11 15 16
9 10 14 14 10 10 15 31 7 15 14 14 8 14 15 24 11 19 14 17 18 18 2 7 2 2 5 4 10 7 5 6 8 6 7 9 13 17 15 21 18 13 15 13 13
7 6 5 15 10 8 13 12 7 13 18 13 9 9 9 21 18 19 10 3 21 15 15 5 4 2 6 9 8 5 8 4 3 6 5 4 9 9 20 20 19 12 9 9 12
10 7 8 13 11 3 10 9 10 21 8 6 7 7 15 22 21 17 18 12 13 14 17 6 3 5 7 3 9 8 15 19 7 6 4 10 19 21 24 27 25 26 21 18 17
6 1 3 11 10 7 3 3 7 15 16 9 6 6 5 17 13 13 9 6 7 20 15 9 5 3 9 6 4 8 14 13 19 5 14 13 13 24 20 25 24 13 16 18 20
6 7 3 9 7 6 9 2 6 20 20 7 7 9 11 14 3 20 9 6 10 15 11 17 5 14 18 6 6 7 17 20 15 12 22 18 26 34 36 36 20 21 21 24 25
4 4 5 6 11 9 1 13 9 7 2 5 4 13 13 9 11 8 9 4 5 15 12 13 8 11 16 6 2 4 7 15 20 22 18 24 18 30 40 21 17 24 24 21 23
5 2 0 5 14 16 15 8 14 10 7 14 14 18 16 14 15 13 13 7 10 12 19 8 4 9 10 10 8 10 12 19 18 20 17 25 30 43 29 30 27 33 30 28 27
2 2 2 7 11 11 9 9 12 17 7 19 11 12 9 12 14 15 11 13 12 16 18 12 7 5 6 5 5 5 25 15 16 19 24 23 36 34 23 30 32 28 27 27 26
Wind_Direction
220 213 209 212 213 212 219 219 211 206 214 256 5 11 348 318 344 336 262 240 196 353 345 332 19 1 62 45 57 126 82 211 224 154 222 153 187 142 123 123 223 200 149 71 124
220 216 210 210 209 211 206 210 209 212 209 215 243 307 312 330 359 274 261 288 272 345 39 166 302 50 72 65 39 110 163 213 217 187 180 148 169 168 134 95 250 212 176 107 140
215 215 211 210 207 209 202 194 189 200 217 205 205 245 298 350 353 247 333 289 276 179 104 87 95 115 139 93 178 153 207 213 313 340 14 123 198 172 132 213 229 205 192 156 168
211 213 210 208 209 207 204 199 195 188 201 213 186 213 241 68 222 6 333 324 195 127 126 135 114 131 141 172 173 164 249 196 7 29 42 31 331 280 191 227 294 255 181 169 178
213 207 207 205 205 205 202 201 198 194 197 211 179 193 152 156 254 324 354 54 87 117 156 149 140 140 176 186 135 168 244 177 116 4 351 273 249 248 264 257 248 142 173 190 193
215 206 202 203 204 201 198 196 197 195 198 202 178 184 150 221 282 333 347 358 73 106 129 143 194 191 138 181 180 141 299 278 258 233 247 253 252 147 258 259 227 208 208 202 204
221 207 201 199 198 196 195 193 194 196 195 197 183 127 216 228 117 40 56 350 323 97 146 181 109 180 142 154 151 82 328 332 211 193 223 169 273 212 251 186 227 236 231 213 220
225 216 202 199 195 193 193 187 191 189 194 197 173 110 230 226 162 114 117 17 347 56 216 171 183 110 80 114 77 121 144 287 303 162 230 167 254 232 252 178 240 240 243 237 216
218 219 209 199 193 189 187 184 188 186 192 179 102 184 238 111 157 192 179 189 184 63 38 72 102 132 118 133 55 177 233 211 299 237 354 202 152 267 239 185 241 243 237 237 239
222 208 208 205 192 185 178 171 177 166 135 102 359 144 177 219 182 185 179 203 173 155 118 205 158 163 153 146 210 188 221 248 214 346 343 274 258 281 285 272 260 267 260 245 243
228 222 212 206 199 183 164 132 131 182 196 193 180 207 126 102 96 157 159 154 175 162 178 209 209 207 195 198 149 114 125 122 298 307 332 269 275 256 261 275 266 267 257 250 239
227 226 219 209 203 187 164 185 167 162 166 224 257 225 138 175 126 189 193 170 176 191 140 188 236 216 204 183 205 231 243 236 240 283 333 300 287 276 244 255 248 251 256 255 243
220 225 224 209 205 193 182 187 143 134 128 208 204 201 169 159 187 184 174 161 178 179 196 196 280 191 176 181 193 225 230 249 257 285 274 302 286 278 241 228 243 245 244 245 237
216 221 226 211 199 219 186 169 151 82 149 201 192 235 175 153 245 175 184 143 192 201 178 239 226 122 175 215 191 232 180 230 258 261 257 129 287 288 231 240 223 239 235 238 243
220 212 222 215 200 208 154 129 88 60 210 177 168 170 157 175 136 189 167 112 157 166 166 207 173 186 190 216 184 229 148 178 189 232 276 250 279 261 256 270 245 242 248 244 242
223 207 218 229 216 208 144 121 98 164 219 166 141 169 163 182 145 128 161 121 133 154 217 203 205 172 210 160 185 180 88 123 154 183 249 195 199 255 219 247 265 212 245 250 245
221 208 187 225 220 154 154 140 183 207 154 173 179 175 177 181 160 171 179 188 176 180 202 181 207 191 166 123 157 179 129 274 206 207 239 178 186 257 291 280 284 260 257 265 264
218 216 214 221 241 165 173 181 208 135 180 163 157 173 186 147 195 179 184 194 211 139 147 192 221 199 187 178 176 201 195 177 192 204 208 220 221 255 106 270 259 258 266 273 265
212 208 198 220 213 222 175 202 188 158 157 149 135 168 174 182 158 177 201 204 196 189 178 187 230 150 169 154 145 172 208 212 25 225 54 213 273 286 269 271 266 262 261 267 273
206 206 209 207 189 229 212 199 167 159 131 153 136 181 174 185 168 186 175 203 208 185 85 204 149 335 177 130 241 154 161 162 196 223 224 235 254 253 293 287 271 275 275 275 265
199 228 198 172 161 207 238 206 133 172 153 152 151 152 172 181 192 191 195 211 191 179 193 144 112 173 138 208 173 187 236 217 186 179 212 247 250 217 254 264 278 288 256 271 278
202 181 161 155 198 176 223 153 144 179 194 131 109 99 172 177 183 193 210 205 185 156 194 177 118 182 199 189 186 205 217 217 220 237 250 254 264 268 275 281 284 289 292 286 276
192 153 194 164 203 212 131 132 172 160 177 142 131 142 180 164 176 199 191 192 159 180 169 161 210 53 335 347 350 217 223 217 225 275 246 251 264 271 273 276 276 293 296 291 290
190 179 170 191 172 173 164 139 116 171 170 144 134 115 114 160 171 189 187 188 170 181 158 165 183 207 222 193 149 196 210 215 207 232 242 242 260 273 274 265 290 285 275 275 278
206 178 163 204 174 197 215 163 147 166 210 173 104 166 147 146 179 168 170 123 154 178 174 170 214 214 237 199 168 226 229 218 222 238 241 260 253 264 260 301 292 282 281 275 278
183 192 36 135 142 158 188 192 180 139 167 204 155 179 173 150 186 168 149 152 172 176 184 183 235 189 260 218 240 268 242 221 225 235 245 250 259 246 283 275 273 266 270 273 269
179 88 75 154 158 177 183 178 189 160 183 216 190 157 172 181 157 152 152 157 161 166 179 180 191 157 251 150 142 306 239 231 230 228 227 242 247 269 270 269 264 273 276 268 265